ASY66 EGVN-ESPA

Flight info

Callsign ASY66
Flight time 2h 18m
Altitude 41000
Route KIDLI DCT BKY M183 REDFA DCT DISRA DCT SUTEB DCT OKMAM P850 DANKO M604 SVA M609 RIPAM DCT IXUMA DCT OSLAV DCT LUKIG DCT RISEM
Aircraft F35/M-SDE3RV/LB1

Departure

Time 2026-05-05 10:53
Airport RAF Brize Norton (EGVN)

Arrival

Time 2026-05-05 13:12
Airport Luleå Airport (ESPA)
Time Latitude Longitude Altitude Speed Heading
2026-05-05 10:42 51.76056 -1.57490 262 ft 0 kts 112°
2026-05-05 10:49 51.76049 -1.57465 262 ft 4 kts 115°
2026-05-05 10:50 51.76032 -1.57447 262 ft 8 kts 171°
2026-05-05 10:50 51.75953 -1.57486 262 ft 14 kts 202°
2026-05-05 10:50 51.75852 -1.57543 262 ft 19 kts 194°
2026-05-05 10:50 51.75734 -1.57605 262 ft 17 kts 195°
2026-05-05 10:51 51.75631 -1.57658 262 ft 17 kts 198°
2026-05-05 10:51 51.75529 -1.57725 262 ft 15 kts 206°
2026-05-05 10:51 51.75439 -1.57798 262 ft 14 kts 211°
2026-05-05 10:51 51.75360 -1.57872 262 ft 14 kts 205°
2026-05-05 10:52 51.75202 -1.58002 262 ft 27 kts 207°
2026-05-05 10:52 51.75176 -1.58023 262 ft 0 kts 208°
2026-05-05 10:52 51.75115 -1.58077 263 ft 21 kts 209°
2026-05-05 10:52 51.74966 -1.58510 262 ft 119 kts 253°
2026-05-05 10:53 51.74642 -1.60274 379 ft 255 kts 253°
2026-05-05 10:53 51.74127 -1.62497 1451 ft 274 kts 251°
2026-05-05 10:53 51.73472 -1.65195 2832 ft 258 kts 251°
2026-05-05 10:53 51.72809 -1.67858 3830 ft 269 kts 251°
2026-05-05 10:54 51.72111 -1.70569 4439 ft 276 kts 249°
2026-05-05 10:54 51.71346 -1.73441 4728 ft 274 kts 248°
2026-05-05 10:54 51.70452 -1.76183 4871 ft 276 kts 240°
2026-05-05 10:54 51.69883 -1.79002 4955 ft 269 kts 272°
2026-05-05 10:55 51.70384 -1.81867 5021 ft 262 kts 308°
2026-05-05 10:55 51.71771 -1.83647 5056 ft 257 kts 343°
2026-05-05 10:55 51.73524 -1.83724 5090 ft 256 kts 19°
2026-05-05 10:55 51.74960 -1.82068 5114 ft 259 kts 54°
2026-05-05 10:56 51.75515 -1.79309 5117 ft 265 kts 89°
2026-05-05 10:56 51.75296 -1.76357 5088 ft 266 kts 97°
2026-05-05 10:56 51.74989 -1.73395 5089 ft 267 kts 97°
2026-05-05 10:56 51.74772 -1.70478 5034 ft 266 kts 92°
2026-05-05 10:57 51.74685 -1.67522 5025 ft 266 kts 88°
2026-05-05 10:57 51.74696 -1.64664 5379 ft 262 kts 86°
2026-05-05 10:57 51.74758 -1.61732 6179 ft 266 kts 85°
2026-05-05 10:57 51.74900 -1.58723 6946 ft 271 kts 80°
2026-05-05 10:58 51.75241 -1.55714 7625 ft 267 kts 77°
2026-05-05 10:58 51.75579 -1.52659 8353 ft 279 kts 80°
2026-05-05 10:58 51.75851 -1.49512 8725 ft 284 kts 81°
2026-05-05 10:58 51.76145 -1.46369 8884 ft 285 kts 79°
2026-05-05 10:59 51.76466 -1.43222 8950 ft 284 kts 80°
2026-05-05 10:59 51.76944 -1.40351 9240 ft 276 kts 64°
2026-05-05 10:59 51.77952 -1.37366 10051 ft 369 kts 58°
2026-05-05 10:59 51.79417 -1.33578 10837 ft 403 kts 57°
2026-05-05 11:00 51.80552 -1.30770 11366 ft 409 kts 56°
2026-05-05 11:00 51.82094 -1.27026 11734 ft 413 kts 56°
2026-05-05 11:00 51.83700 -1.23165 11901 ft 413 kts 56°
2026-05-05 11:00 51.85276 -1.19391 11962 ft 412 kts 55°
2026-05-05 11:01 51.86839 -1.15655 11987 ft 413 kts 55°
2026-05-05 11:01 51.88278 -1.12218 11991 ft 413 kts 55°
2026-05-05 11:01 51.89535 -1.09214 11992 ft 413 kts 55°
2026-05-05 11:01 51.90751 -1.06305 11990 ft 413 kts 55°
2026-05-05 11:02 51.91569 -1.04349 11991 ft 414 kts 55°
2026-05-05 11:02 51.93226 -1.00378 11992 ft 413 kts 56°
2026-05-05 11:02 51.94837 -0.96509 12536 ft 417 kts 55°
2026-05-05 11:02 51.96417 -0.92708 13312 ft 419 kts 56°
2026-05-05 11:03 51.97985 -0.88657 14083 ft 424 kts 65°
2026-05-05 11:03 51.98896 -0.84120 14841 ft 435 kts 76°
2026-05-05 11:03 51.99551 -0.79281 15597 ft 437 kts 79°
2026-05-05 11:03 52.00117 -0.74467 16365 ft 441 kts 80°
2026-05-05 11:04 52.00656 -0.69681 17134 ft 449 kts 81°
2026-05-05 11:04 52.01197 -0.64619 17953 ft 451 kts 85°
2026-05-05 11:04 52.01003 -0.59964 18720 ft 391 kts 108°
2026-05-05 11:04 51.99908 -0.55016 19490 ft 542 kts 111°
2026-05-05 11:05 51.98992 -0.48940 20278 ft 570 kts 100°
2026-05-05 11:05 51.98527 -0.42473 21077 ft 577 kts 95°
2026-05-05 11:05 51.98313 -0.35947 21888 ft 579 kts 92°
2026-05-05 11:05 51.98243 -0.29442 22702 ft 579 kts 91°
2026-05-05 11:06 51.98237 -0.22913 23535 ft 578 kts 91°
2026-05-05 11:06 51.98259 -0.17021 24174 ft 577 kts 91°
2026-05-05 11:06 51.98301 -0.10453 24887 ft 577 kts 91°
2026-05-05 11:06 51.98355 -0.03831 25630 ft 576 kts 90°
2026-05-05 11:07 51.98541 0.00613 26148 ft 576 kts 85°
2026-05-05 11:07 51.99082 0.07170 26927 ft 576 kts 85°
2026-05-05 11:07 51.99419 0.13515 27696 ft 574 kts 87°
2026-05-05 11:07 51.99828 0.20024 28506 ft 573 kts 85°
2026-05-05 11:08 52.00229 0.26464 29335 ft 572 kts 87°
2026-05-05 11:08 52.00592 0.32890 30161 ft 571 kts 86°
2026-05-05 11:08 52.00986 0.39221 30883 ft 568 kts 86°
2026-05-05 11:08 52.01354 0.45648 31643 ft 564 kts 86°
2026-05-05 11:09 52.01716 0.51869 32395 ft 561 kts 86°
2026-05-05 11:09 52.02089 0.58258 33204 ft 558 kts 86°
2026-05-05 11:09 52.02442 0.64520 34002 ft 555 kts 86°
2026-05-05 11:09 52.02798 0.70748 34697 ft 553 kts 86°
2026-05-05 11:10 52.03146 0.76972 35416 ft 554 kts 86°
2026-05-05 11:10 52.03487 0.83132 36137 ft 555 kts 86°
2026-05-05 11:10 52.03836 0.89451 36907 ft 555 kts 86°
2026-05-05 11:10 52.04173 0.95660 37689 ft 556 kts 86°
2026-05-05 11:11 52.04513 1.01960 38520 ft 556 kts 86°
2026-05-05 11:11 52.04847 1.08219 39191 ft 556 kts 86°
2026-05-05 11:11 52.05177 1.14480 39864 ft 556 kts 86°
2026-05-05 11:11 52.05506 1.20772 40440 ft 559 kts 86°
2026-05-05 11:12 52.05829 1.26977 40712 ft 544 kts 86°
2026-05-05 11:12 52.06139 1.33046 40843 ft 542 kts 86°
2026-05-05 11:12 52.06450 1.39196 40903 ft 544 kts 86°
2026-05-05 11:13 52.06959 1.49367 40956 ft 542 kts 86°
2026-05-05 11:13 52.07559 1.61592 40973 ft 543 kts 86°
2026-05-05 11:14 52.08147 1.73857 40977 ft 543 kts 86°
2026-05-05 11:14 52.08725 1.86162 40981 ft 543 kts 86°
2026-05-05 11:15 52.09283 1.98318 40982 ft 543 kts 86°
2026-05-05 11:15 52.09823 2.10344 40981 ft 543 kts 86°
2026-05-05 11:16 52.10360 2.22609 40979 ft 544 kts 87°
2026-05-05 11:16 52.10885 2.34870 40978 ft 544 kts 87°
2026-05-05 11:17 52.11767 2.47030 41007 ft 542 kts 70°
2026-05-05 11:17 52.13438 2.52522 41062 ft 546 kts 52°
2026-05-05 11:17 52.16006 2.57110 41078 ft 550 kts 41°
2026-05-05 11:18 52.21855 2.65083 41017 ft 546 kts 38°
2026-05-05 11:18 52.27516 2.73338 40998 ft 547 kts 45°
2026-05-05 11:19 52.33055 2.81830 40990 ft 547 kts 44°
2026-05-05 11:19 52.38576 2.90400 40980 ft 547 kts 43°
2026-05-05 11:20 52.44100 2.99004 40978 ft 547 kts 43°
2026-05-05 11:20 52.49620 3.07596 40979 ft 547 kts 43°
2026-05-05 11:21 52.55146 3.16224 40981 ft 548 kts 43°
2026-05-05 11:21 52.60654 3.24865 40983 ft 548 kts 43°
2026-05-05 11:22 52.66163 3.33544 40983 ft 548 kts 43°
2026-05-05 11:22 52.71675 3.42254 40985 ft 548 kts 43°
2026-05-05 11:23 52.77138 3.50918 40986 ft 548 kts 43°
2026-05-05 11:23 52.82633 3.59666 40991 ft 548 kts 43°
2026-05-05 11:24 52.88153 3.68487 40986 ft 548 kts 43°
2026-05-05 11:24 52.93630 3.77272 40987 ft 548 kts 43°
2026-05-05 11:25 52.99070 3.86029 40985 ft 549 kts 44°
2026-05-05 11:25 53.04542 3.94871 40980 ft 549 kts 44°
2026-05-05 11:26 53.10004 4.03730 40977 ft 549 kts 44°
2026-05-05 11:26 53.15466 4.12622 40984 ft 549 kts 43°
2026-05-05 11:27 53.20746 4.21249 40986 ft 549 kts 44°
2026-05-05 11:27 53.26161 4.30130 40993 ft 549 kts 44°
2026-05-05 11:28 53.31671 4.38939 41003 ft 546 kts 34°
2026-05-05 11:28 53.38336 4.45033 41028 ft 545 kts 18°
2026-05-05 11:29 53.45546 4.48883 41017 ft 544 kts 18°
2026-05-05 11:29 53.52698 4.53107 41011 ft 544 kts 16°
2026-05-05 11:30 53.59856 4.57306 41010 ft 544 kts 17°
2026-05-05 11:30 53.66860 4.61379 41011 ft 545 kts 17°
2026-05-05 11:31 53.74024 4.65560 41007 ft 546 kts 17°
2026-05-05 11:31 53.81188 4.69774 41006 ft 544 kts 17°
2026-05-05 11:32 53.88345 4.73998 41007 ft 545 kts 17°
2026-05-05 11:32 53.95472 4.78214 40992 ft 545 kts 17°
2026-05-05 11:33 54.02577 4.82433 40998 ft 545 kts 17°
2026-05-05 11:33 54.09735 4.86701 40997 ft 545 kts 17°
2026-05-05 11:34 54.16904 4.90991 41000 ft 545 kts 17°
2026-05-05 11:34 54.24063 4.95289 40996 ft 545 kts 17°
2026-05-05 11:35 54.31221 4.99604 40996 ft 545 kts 17°
2026-05-05 11:35 54.38369 5.03928 40999 ft 545 kts 17°
2026-05-05 11:36 54.45528 5.08275 41002 ft 545 kts 17°
2026-05-05 11:36 54.52687 5.12638 41002 ft 545 kts 17°
2026-05-05 11:37 54.59807 5.16994 41003 ft 546 kts 17°
2026-05-05 11:37 54.66997 5.21409 41003 ft 546 kts 17°
2026-05-05 11:38 54.74158 5.25823 41005 ft 546 kts 17°
2026-05-05 11:38 54.81311 5.30248 41007 ft 546 kts 17°
2026-05-05 11:39 54.88469 5.34693 41009 ft 546 kts 17°
2026-05-05 11:39 54.95620 5.39151 41005 ft 546 kts 18°
2026-05-05 11:40 55.02787 5.43507 41009 ft 546 kts 15°
2026-05-05 11:40 55.09993 5.47831 41009 ft 546 kts 15°
2026-05-05 11:41 55.17178 5.52099 41007 ft 546 kts 16°
2026-05-05 11:41 55.24380 5.56386 41005 ft 545 kts 16°
2026-05-05 11:42 55.31560 5.60696 41007 ft 546 kts 16°
2026-05-05 11:42 55.38688 5.64994 41003 ft 546 kts 16°
2026-05-05 11:43 55.45875 5.69337 41008 ft 545 kts 16°
2026-05-05 11:43 55.53049 5.73689 41005 ft 545 kts 16°
2026-05-05 11:44 55.60219 5.78058 41006 ft 545 kts 16°
2026-05-05 11:44 55.67395 5.82447 41006 ft 545 kts 16°
2026-05-05 11:45 55.74568 5.86851 41006 ft 545 kts 16°
2026-05-05 11:45 55.81750 5.91278 41008 ft 545 kts 16°
2026-05-05 11:46 55.88912 5.95710 41006 ft 546 kts 16°
2026-05-05 11:46 55.96089 6.00168 41007 ft 545 kts 16°
2026-05-05 11:47 56.03249 6.04633 41008 ft 545 kts 16°
2026-05-05 11:47 56.10434 6.09133 41010 ft 546 kts 16°
2026-05-05 11:48 56.21197 6.15905 41011 ft 546 kts 16°
2026-05-05 11:48 56.28366 6.20438 41010 ft 546 kts 16°
2026-05-05 11:49 56.35520 6.24980 41013 ft 546 kts 16°
2026-05-05 11:49 56.42698 6.29555 41014 ft 546 kts 16°
2026-05-05 11:50 56.49759 6.34074 41015 ft 546 kts 16°
2026-05-05 11:50 56.56929 6.38681 41019 ft 546 kts 16°
2026-05-05 11:51 56.64087 6.43298 41018 ft 546 kts 16°
2026-05-05 11:51 56.71252 6.47939 41018 ft 547 kts 16°
2026-05-05 11:52 56.78413 6.52596 41021 ft 547 kts 16°
2026-05-05 11:52 56.85579 6.57276 41022 ft 547 kts 16°
2026-05-05 11:53 56.92638 6.62517 41035 ft 551 kts 26°
2026-05-05 11:53 56.99359 6.69324 41029 ft 552 kts 23°
2026-05-05 11:54 57.06026 6.76354 41028 ft 554 kts 28°
2026-05-05 11:54 57.12669 6.83476 41027 ft 554 kts 28°
2026-05-05 11:55 57.18223 6.89518 41025 ft 553 kts 27°
2026-05-05 11:55 57.24849 6.96784 41019 ft 553 kts 27°
2026-05-05 11:56 57.31476 7.04051 41005 ft 554 kts 27°
2026-05-05 11:56 57.38106 7.11349 41008 ft 554 kts 27°
2026-05-05 11:57 57.44697 7.18643 41006 ft 554 kts 27°
2026-05-05 11:57 57.51308 7.25993 41004 ft 554 kts 27°
2026-05-05 11:58 57.57944 7.33398 40997 ft 555 kts 27°
2026-05-05 11:58 57.64564 7.40818 40998 ft 555 kts 27°
2026-05-05 11:59 57.71230 7.48322 40991 ft 555 kts 27°
2026-05-05 11:59 57.77786 7.55734 40984 ft 555 kts 27°
2026-05-05 12:00 57.84446 7.63297 40977 ft 556 kts 27°
2026-05-05 12:00 57.91014 7.70787 40972 ft 556 kts 28°
2026-05-05 12:01 57.97627 7.78363 40967 ft 556 kts 27°
2026-05-05 12:01 58.04241 7.85971 40966 ft 557 kts 28°
2026-05-05 12:02 58.10762 7.93922 40978 ft 561 kts 35°
2026-05-05 12:02 58.16907 8.03091 40980 ft 561 kts 32°
2026-05-05 12:03 58.23098 8.12155 40969 ft 562 kts 34°
2026-05-05 12:03 58.26237 8.16675 40271 ft 568 kts 34°
2026-05-05 12:03 58.29317 8.21234 39606 ft 565 kts 34°
2026-05-05 12:04 58.32464 8.25847 38944 ft 563 kts 33°
2026-05-05 12:04 58.35521 8.30335 38222 ft 564 kts 34°
2026-05-05 12:04 58.38662 8.34990 37419 ft 567 kts 33°
2026-05-05 12:04 58.41798 8.39616 36638 ft 570 kts 33°
2026-05-05 12:05 58.44921 8.44251 35902 ft 572 kts 33°
2026-05-05 12:05 58.48071 8.48936 35179 ft 573 kts 33°
2026-05-05 12:05 58.51220 8.53622 34482 ft 575 kts 32°
2026-05-05 12:05 58.54382 8.58347 33777 ft 577 kts 32°
2026-05-05 12:06 58.57549 8.63083 32964 ft 579 kts 32°
2026-05-05 12:06 58.60736 8.67865 32196 ft 581 kts 32°
2026-05-05 12:06 58.63929 8.72668 31438 ft 583 kts 32°
2026-05-05 12:06 58.67159 8.77534 30697 ft 586 kts 32°
2026-05-05 12:07 58.70372 8.82392 29981 ft 588 kts 32°
2026-05-05 12:07 58.73546 8.87198 29145 ft 589 kts 32°
2026-05-05 12:07 58.76802 8.92142 28332 ft 591 kts 32°
2026-05-05 12:07 58.80001 8.97011 27537 ft 592 kts 32°
2026-05-05 12:08 58.83242 9.01955 26769 ft 594 kts 32°
2026-05-05 12:08 58.86515 9.06963 26023 ft 595 kts 32°
2026-05-05 12:08 58.89725 9.11886 25305 ft 596 kts 32°
2026-05-05 12:08 58.92978 9.16886 24594 ft 598 kts 32°
2026-05-05 12:09 58.96279 9.21973 23887 ft 600 kts 32°
2026-05-05 12:09 58.99538 9.27008 23144 ft 601 kts 32°
2026-05-05 12:09 59.02822 9.32092 22460 ft 603 kts 32°
2026-05-05 12:09 59.06091 9.37170 22156 ft 603 kts 32°
2026-05-05 12:10 59.09370 9.42271 22024 ft 604 kts 32°
2026-05-05 12:10 59.12658 9.47406 21977 ft 605 kts 32°
2026-05-05 12:10 59.15947 9.52553 21949 ft 606 kts 32°
2026-05-05 12:10 59.19238 9.57708 21931 ft 604 kts 30°
2026-05-05 12:11 59.22701 9.62187 21925 ft 597 kts 23°
2026-05-05 12:11 59.26241 9.66460 21929 ft 600 kts 27°
2026-05-05 12:11 59.29675 9.71074 21912 ft 600 kts 26°
2026-05-05 12:11 59.33199 9.75504 21924 ft 601 kts 26°
2026-05-05 12:12 59.36514 9.80268 21907 ft 607 kts 31°
2026-05-05 12:12 59.39917 9.85194 21909 ft 604 kts 27°
2026-05-05 12:12 59.43294 9.89916 21902 ft 606 kts 29°
2026-05-05 12:12 59.46681 9.94851 21904 ft 606 kts 29°
2026-05-05 12:13 59.50108 9.99709 21900 ft 606 kts 28°
2026-05-05 12:13 59.53375 10.05055 21898 ft 619 kts 41°
2026-05-05 12:13 59.55950 10.11953 21921 ft 635 kts 57°
2026-05-05 12:13 59.57929 10.19786 21907 ft 634 kts 56°
2026-05-05 12:14 59.60490 10.26730 21934 ft 623 kts 41°
2026-05-05 12:14 59.63669 10.32420 21942 ft 612 kts 31°
2026-05-05 12:14 59.67058 10.37468 21928 ft 609 kts 29°
2026-05-05 12:14 59.70516 10.42350 21909 ft 609 kts 28°
2026-05-05 12:15 59.73975 10.47138 21903 ft 609 kts 27°
2026-05-05 12:15 59.77451 10.51921 21907 ft 608 kts 27°
2026-05-05 12:15 59.80920 10.56755 21904 ft 613 kts 31°
2026-05-05 12:15 59.84205 10.62283 21900 ft 619 kts 36°
2026-05-05 12:16 59.87457 10.67855 21900 ft 616 kts 32°
2026-05-05 12:16 59.90795 10.73238 21892 ft 617 kts 34°
2026-05-05 12:16 59.94050 10.78776 21894 ft 617 kts 33°
2026-05-05 12:16 59.97361 10.84230 21873 ft 614 kts 33°
2026-05-05 12:17 60.00640 10.89740 21866 ft 617 kts 33°
2026-05-05 12:17 60.03940 10.95285 21869 ft 616 kts 33°
2026-05-05 12:17 60.07207 11.00761 21869 ft 616 kts 33°
2026-05-05 12:17 60.10480 11.06300 21871 ft 616 kts 34°
2026-05-05 12:18 60.13763 11.11844 21873 ft 616 kts 33°
2026-05-05 12:18 60.17069 11.17451 21870 ft 617 kts 34°
2026-05-05 12:18 60.20339 11.23016 21870 ft 615 kts 34°
2026-05-05 12:18 60.23634 11.28631 21869 ft 614 kts 34°
2026-05-05 12:19 60.26895 11.34209 21862 ft 613 kts 34°
2026-05-05 12:19 60.30132 11.39757 21853 ft 612 kts 34°
2026-05-05 12:19 60.33374 11.45332 21861 ft 611 kts 34°
2026-05-05 12:19 60.36607 11.50905 21868 ft 611 kts 34°
2026-05-05 12:20 60.39838 11.56489 21879 ft 609 kts 35°
2026-05-05 12:20 60.43093 11.62130 21878 ft 608 kts 35°
2026-05-05 12:20 60.46266 11.67644 21894 ft 609 kts 35°
2026-05-05 12:20 60.49472 11.73232 21889 ft 607 kts 35°
2026-05-05 12:21 60.52679 11.78834 21890 ft 606 kts 35°
2026-05-05 12:21 60.55863 11.84412 21879 ft 605 kts 36°
2026-05-05 12:21 60.59060 11.90028 21878 ft 604 kts 36°
2026-05-05 12:21 60.62234 11.95618 21887 ft 603 kts 36°
2026-05-05 12:22 60.65401 12.01212 21882 ft 603 kts 36°
2026-05-05 12:22 60.68571 12.06828 21875 ft 601 kts 36°
2026-05-05 12:22 60.71716 12.12413 21877 ft 601 kts 36°
2026-05-05 12:22 60.74879 12.18043 21874 ft 601 kts 36°
2026-05-05 12:23 60.78019 12.23652 21865 ft 599 kts 37°
2026-05-05 12:23 60.81152 12.29261 21871 ft 598 kts 37°
2026-05-05 12:23 60.84282 12.34880 21887 ft 597 kts 37°
2026-05-05 12:23 60.87399 12.40489 21883 ft 596 kts 37°
2026-05-05 12:24 60.90514 12.46111 21451 ft 595 kts 37°
2026-05-05 12:24 60.93595 12.51685 20645 ft 587 kts 38°
2026-05-05 12:24 60.96616 12.57167 19870 ft 582 kts 38°
2026-05-05 12:24 60.99630 12.62651 19098 ft 576 kts 39°
2026-05-05 12:25 61.02139 12.67227 18478 ft 572 kts 39°
2026-05-05 12:25 61.05134 12.72702 17671 ft 568 kts 40°
2026-05-05 12:25 61.08095 12.78130 16819 ft 569 kts 40°
2026-05-05 12:25 61.11050 12.83561 16012 ft 568 kts 40°
2026-05-05 12:26 61.13994 12.88986 15333 ft 567 kts 40°
2026-05-05 12:26 61.15952 12.92603 15111 ft 568 kts 40°
2026-05-05 12:26 61.19892 12.99896 14911 ft 568 kts 40°
2026-05-05 12:26 61.22839 13.05370 14865 ft 569 kts 40°
2026-05-05 12:27 61.24823 13.09062 14849 ft 568 kts 40°
2026-05-05 12:27 61.27732 13.14488 14843 ft 569 kts 40°
2026-05-05 12:27 61.30706 13.20050 14840 ft 568 kts 40°
2026-05-05 12:27 61.33656 13.25580 14839 ft 568 kts 41°
2026-05-05 12:28 61.36591 13.31098 14846 ft 568 kts 40°
2026-05-05 12:28 61.39487 13.36558 14849 ft 568 kts 40°
2026-05-05 12:28 61.42446 13.42149 14855 ft 568 kts 41°
2026-05-05 12:28 61.45379 13.47708 14853 ft 568 kts 41°
2026-05-05 12:29 61.48294 13.53247 14855 ft 568 kts 41°
2026-05-05 12:29 61.51219 13.58816 14859 ft 568 kts 41°
2026-05-05 12:29 61.54133 13.64382 14853 ft 568 kts 41°
2026-05-05 12:29 61.57026 13.69922 14865 ft 568 kts 41°
2026-05-05 12:30 61.59950 13.75537 14851 ft 568 kts 41°
2026-05-05 12:30 61.62856 13.81133 14846 ft 568 kts 41°
2026-05-05 12:30 61.65789 13.86750 14846 ft 568 kts 41°
2026-05-05 12:30 61.68669 13.92405 14849 ft 569 kts 40°
2026-05-05 12:31 61.71623 13.97980 14836 ft 568 kts 38°
2026-05-05 12:31 61.74712 14.03166 14835 ft 569 kts 38°
2026-05-05 12:31 61.77808 14.08305 14824 ft 568 kts 34°
2026-05-05 12:31 61.81048 14.13138 14826 ft 568 kts 33°
2026-05-05 12:32 61.84248 14.18058 14828 ft 569 kts 38°
2026-05-05 12:32 61.87255 14.23457 14820 ft 569 kts 38°
2026-05-05 12:32 61.90305 14.28816 14820 ft 569 kts 39°
2026-05-05 12:32 61.93313 14.34284 14806 ft 569 kts 38°
2026-05-05 12:33 61.96361 14.39637 14807 ft 569 kts 38°
2026-05-05 12:33 61.99377 14.45088 14806 ft 569 kts 39°
2026-05-05 12:33 62.02402 14.50511 14806 ft 569 kts 38°
2026-05-05 12:33 62.05440 14.55964 14808 ft 570 kts 39°
2026-05-05 12:34 62.08454 14.61431 14812 ft 569 kts 39°
2026-05-05 12:34 62.11481 14.66894 14808 ft 569 kts 39°
2026-05-05 12:34 62.14516 14.72407 14809 ft 570 kts 39°
2026-05-05 12:34 62.17537 14.77913 14807 ft 570 kts 39°
2026-05-05 12:35 62.20579 14.83457 14803 ft 551 kts 39°
2026-05-05 12:35 62.23292 14.88434 14794 ft 500 kts 39°
2026-05-05 12:35 62.25931 14.93264 14800 ft 500 kts 39°
2026-05-05 12:35 62.28556 14.98091 14800 ft 499 kts 39°
2026-05-05 12:36 62.31187 15.02945 14796 ft 498 kts 39°
2026-05-05 12:36 62.33815 15.07795 14801 ft 498 kts 39°
2026-05-05 12:36 62.36450 15.12679 14801 ft 497 kts 39°
2026-05-05 12:36 62.39062 15.17528 14802 ft 498 kts 39°
2026-05-05 12:37 62.41730 15.22490 14797 ft 499 kts 39°
2026-05-05 12:37 62.44358 15.27395 14794 ft 499 kts 39°
2026-05-05 12:37 62.46986 15.32307 14793 ft 499 kts 39°
2026-05-05 12:37 62.49604 15.37218 14797 ft 499 kts 39°
2026-05-05 12:38 62.52199 15.42093 14796 ft 499 kts 39°
2026-05-05 12:38 62.54859 15.47106 14795 ft 500 kts 39°
2026-05-05 12:38 62.57445 15.51986 14786 ft 500 kts 39°
2026-05-05 12:38 62.60102 15.57013 14791 ft 500 kts 40°
2026-05-05 12:39 62.62686 15.61919 14785 ft 501 kts 40°
2026-05-05 12:39 62.65339 15.66963 14783 ft 500 kts 40°
2026-05-05 12:39 62.67953 15.71948 14782 ft 501 kts 40°
2026-05-05 12:39 62.70548 15.76911 14781 ft 501 kts 40°
2026-05-05 12:40 62.73180 15.81951 14774 ft 501 kts 40°
2026-05-05 12:40 62.75828 15.87037 14781 ft 502 kts 40°
2026-05-05 12:40 62.78410 15.92009 14772 ft 502 kts 40°
2026-05-05 12:40 62.81021 15.97050 14770 ft 501 kts 40°
2026-05-05 12:41 62.83606 16.02051 14768 ft 501 kts 40°
2026-05-05 12:41 62.86279 16.07238 14771 ft 501 kts 40°
2026-05-05 12:41 62.89142 16.12792 14777 ft 588 kts 40°
2026-05-05 12:41 62.92235 16.18845 14782 ft 590 kts 40°
2026-05-05 12:42 62.95301 16.24835 14781 ft 590 kts 40°
2026-05-05 12:42 62.98362 16.30837 14772 ft 591 kts 40°
2026-05-05 12:42 63.01423 16.36871 14768 ft 592 kts 40°
2026-05-05 12:42 63.04463 16.42860 14758 ft 593 kts 40°
2026-05-05 12:43 63.07563 16.49002 14754 ft 593 kts 40°
2026-05-05 12:43 63.10588 16.55003 14757 ft 591 kts 41°
2026-05-05 12:43 63.13706 16.61210 14750 ft 592 kts 41°
2026-05-05 12:43 63.16730 16.67252 14744 ft 592 kts 41°
2026-05-05 12:44 63.19811 16.73422 14740 ft 592 kts 41°
2026-05-05 12:44 63.22863 16.79551 14740 ft 591 kts 41°
2026-05-05 12:44 63.25880 16.85633 14738 ft 592 kts 41°
2026-05-05 12:44 63.28923 16.91778 14738 ft 592 kts 41°
2026-05-05 12:45 63.31955 16.97926 14744 ft 592 kts 41°
2026-05-05 12:45 63.35001 17.04119 14735 ft 592 kts 41°
2026-05-05 12:45 63.38041 17.10318 14734 ft 592 kts 41°
2026-05-05 12:45 63.41068 17.16507 14741 ft 592 kts 41°
2026-05-05 12:46 63.44110 17.22747 14731 ft 592 kts 41°
2026-05-05 12:46 63.47136 17.28975 14729 ft 592 kts 41°
2026-05-05 12:46 63.50174 17.35242 14724 ft 591 kts 41°
2026-05-05 12:46 63.53197 17.41501 14722 ft 592 kts 41°
2026-05-05 12:47 63.56217 17.47770 14725 ft 592 kts 41°
2026-05-05 12:47 63.59232 17.54048 14715 ft 592 kts 41°
2026-05-05 12:47 63.62248 17.60347 14716 ft 592 kts 41°
2026-05-05 12:47 63.65222 17.66581 14714 ft 592 kts 41°
2026-05-05 12:48 63.68243 17.72929 14712 ft 592 kts 41°
2026-05-05 12:48 63.71253 17.79273 14708 ft 591 kts 41°
2026-05-05 12:48 63.74254 17.85619 14706 ft 591 kts 41°
2026-05-05 12:48 63.77258 17.91990 14703 ft 592 kts 41°
2026-05-05 12:49 63.80260 17.98375 14699 ft 592 kts 41°
2026-05-05 12:49 63.83250 18.04758 14696 ft 592 kts 41°
2026-05-05 12:49 63.86244 18.11162 14691 ft 592 kts 41°
2026-05-05 12:49 63.89226 18.17567 14684 ft 591 kts 41°
2026-05-05 12:50 63.92218 18.24013 14683 ft 591 kts 41°
2026-05-05 12:50 63.95201 18.30452 14682 ft 591 kts 42°
2026-05-05 12:50 63.98188 18.36930 14686 ft 591 kts 41°
2026-05-05 12:50 64.01124 18.43307 14683 ft 591 kts 42°
2026-05-05 12:51 64.04091 18.49778 14684 ft 591 kts 42°
2026-05-05 12:51 64.07089 18.56337 14682 ft 591 kts 41°
2026-05-05 12:51 64.10076 18.62888 14678 ft 591 kts 42°
2026-05-05 12:51 64.13029 18.69390 14672 ft 591 kts 42°
2026-05-05 12:52 64.15816 18.75543 14652 ft 591 kts 42°
2026-05-05 12:52 64.18873 18.82309 14652 ft 591 kts 42°
2026-05-05 12:52 64.21830 18.88881 14647 ft 590 kts 42°
2026-05-05 12:52 64.24732 18.95346 14647 ft 591 kts 42°
2026-05-05 12:53 64.27684 19.01946 14649 ft 591 kts 42°
2026-05-05 12:53 64.30634 19.08559 14635 ft 590 kts 42°
2026-05-05 12:53 64.33602 19.15237 14641 ft 590 kts 43°
2026-05-05 12:53 64.36538 19.21863 14635 ft 590 kts 42°
2026-05-05 12:54 64.42403 19.35161 14635 ft 590 kts 42°
2026-05-05 12:54 64.45334 19.41835 14628 ft 590 kts 42°
2026-05-05 12:54 64.48255 19.48513 14627 ft 590 kts 43°
2026-05-05 12:55 64.51177 19.55213 14629 ft 590 kts 43°
2026-05-05 12:55 64.54096 19.61923 14627 ft 590 kts 43°
2026-05-05 12:55 64.57001 19.68629 14620 ft 590 kts 43°
2026-05-05 12:55 64.59909 19.75342 14626 ft 590 kts 44°
2026-05-05 12:56 64.62816 19.82255 14619 ft 589 kts 41°
2026-05-05 12:56 64.65780 19.88852 14618 ft 590 kts 43°
2026-05-05 12:56 64.68635 19.95740 14606 ft 589 kts 43°
2026-05-05 12:56 64.71553 20.02452 14600 ft 589 kts 43°
2026-05-05 12:57 64.74384 20.09161 14599 ft 590 kts 43°
2026-05-05 12:57 64.77269 20.15985 14599 ft 585 kts 43°
2026-05-05 12:57 64.79893 20.22172 14603 ft 495 kts 43°
2026-05-05 12:57 64.82330 20.27970 14924 ft 497 kts 43°
2026-05-05 12:58 64.84771 20.33761 15066 ft 497 kts 43°
2026-05-05 12:58 64.87199 20.39567 15129 ft 497 kts 43°
2026-05-05 12:58 64.89615 20.45360 15152 ft 497 kts 43°
2026-05-05 12:58 64.92034 20.51146 15152 ft 498 kts 43°
2026-05-05 12:59 64.94601 20.57336 14521 ft 507 kts 44°
2026-05-05 12:59 64.96190 20.61200 14001 ft 466 kts 44°
2026-05-05 12:59 64.99014 20.68003 12929 ft 423 kts 43°
2026-05-05 13:00 65.03048 20.77806 11268 ft 410 kts 43°
2026-05-05 13:00 65.04391 20.81071 10783 ft 406 kts 43°
2026-05-05 13:01 65.10262 20.95423 10216 ft 403 kts 43°
2026-05-05 13:01 65.12842 21.01762 10182 ft 404 kts 43°
2026-05-05 13:01 65.14161 21.05016 10184 ft 404 kts 44°
2026-05-05 13:01 65.16119 21.09846 10138 ft 406 kts 44°
2026-05-05 13:02 65.18047 21.14619 9332 ft 397 kts 43°
2026-05-05 13:02 65.19872 21.19154 8518 ft 370 kts 42°
2026-05-05 13:02 65.21637 21.23430 7698 ft 349 kts 41°
2026-05-05 13:02 65.23201 21.27627 6909 ft 334 kts 47°
2026-05-05 13:03 65.24656 21.31786 6152 ft 321 kts 45°
2026-05-05 13:03 65.26110 21.35686 5364 ft 309 kts 44°
2026-05-05 13:03 65.27511 21.39468 4574 ft 299 kts 45°
2026-05-05 13:03 65.28864 21.43239 3823 ft 291 kts 44°
2026-05-05 13:04 65.30156 21.46802 3045 ft 283 kts 44°
2026-05-05 13:04 65.31430 21.50279 2545 ft 264 kts 44°
2026-05-05 13:04 65.32600 21.53512 2323 ft 252 kts 44°
2026-05-05 13:04 65.33745 21.56680 2205 ft 250 kts 43°
2026-05-05 13:05 65.34890 21.59839 2147 ft 250 kts 43°
2026-05-05 13:05 65.36030 21.62989 2118 ft 247 kts 44°
2026-05-05 13:05 65.37155 21.66113 2104 ft 248 kts 44°
2026-05-05 13:05 65.38286 21.69266 2108 ft 251 kts 44°
2026-05-05 13:06 65.39405 21.72466 2122 ft 253 kts 51°
2026-05-05 13:06 65.40100 21.76393 2137 ft 258 kts 68°
2026-05-05 13:06 65.40584 21.80507 2141 ft 260 kts 71°
2026-05-05 13:06 65.41021 21.84779 2119 ft 259 kts 72°
2026-05-05 13:07 65.41416 21.88893 2146 ft 243 kts 73°
2026-05-05 13:07 65.41765 21.92698 2123 ft 232 kts 72°
2026-05-05 13:07 65.42110 21.96457 2097 ft 231 kts 73°
2026-05-05 13:07 65.42457 22.00225 2143 ft 231 kts 72°
2026-05-05 13:08 65.42804 22.04019 2110 ft 229 kts 73°
2026-05-05 13:08 65.43145 22.07737 2107 ft 228 kts 72°
2026-05-05 13:08 65.43745 22.11177 2257 ft 225 kts 61°
2026-05-05 13:08 65.44257 22.14797 2422 ft 229 kts 64°
2026-05-05 13:09 65.44952 22.18185 2414 ft 224 kts 52°
2026-05-05 13:09 65.45892 22.21109 2464 ft 218 kts 41°
2026-05-05 13:09 65.47003 22.23486 2465 ft 213 kts 28°
2026-05-05 13:09 65.48304 22.25011 2482 ft 204 kts 355°
2026-05-05 13:10 65.49499 22.24529 2298 ft 149 kts 311°
2026-05-05 13:10 65.50167 22.22727 1831 ft 150 kts 306°
2026-05-05 13:10 65.50822 22.20705 1372 ft 147 kts 310°
2026-05-05 13:10 65.51429 22.19103 1009 ft 114 kts 313°
2026-05-05 13:11 65.52022 22.17660 702 ft 135 kts 313°
2026-05-05 13:11 65.52660 22.16127 345 ft 130 kts 313°
2026-05-05 13:11 65.53323 22.14567 109 ft 126 kts 315°
2026-05-05 13:11 65.53802 22.13481 39 ft 73 kts 318°
2026-05-05 13:12 65.54032 22.12962 42 ft 38 kts 316°
2026-05-05 13:12 65.54205 22.12595 47 ft 31 kts 314°
2026-05-05 13:12 65.54185 22.12385 48 ft 13 kts 239°
2026-05-05 13:12 65.54145 22.12209 48 ft 9 kts 244°
2026-05-05 13:13 65.54114 22.12070 48 ft 9 kts 237°
2026-05-05 13:13 65.54061 22.12030 47 ft 8 kts 194°
2026-05-05 13:13 65.54008 22.12078 47 ft 9 kts 140°
2026-05-05 13:13 65.53981 22.12138 46 ft 0 kts 135°
2026-05-05 13:14 65.53981 22.12163 46 ft 3 kts 72°
2026-05-05 13:14 65.53989 22.12186 46 ft 2 kts 46°
2026-05-05 13:14 65.53990 22.12188 46 ft 0 kts 46°